Location: Aula-Vintri
(58.3875°N, 22.4322°E)
Time: 01:01:35
(UTC+00:00)

Cosmos 1844 Rocket - Pass Details

Date: 13 October 2019
Orbit: 826 x 843 km, 71.0° (Epoch: 14 November)

Event Time Altitude Azimuth Distance (km) Brightness Sun altitude
Rises 17:00:09 0° 191° (S) 3,391 5.9 -12.4°
Reaches altitude 10° 17:02:40 10° 185° (S) 2,458 5.1 -12.7°
Maximum altitude 17:08:00 45° 114° (ESE) 1,138 3.0 -13.4°
Drops below altitude 10° 17:13:20 10° 44° (NE) 2,463 4.8 -14.1°
Sets 17:15:52 0° 38° (NE) 3,399 5.6 -14.4°
